Weather History for KOKC - November, 2012

Change the Weather History Date:

Sunday, November 18, 2012

  Actual Average Record
Temperature  
Mean Temperature 54 °F 50 °F  
Max Temperature 64 °F 60 °F 80 °F (1930)
Min Temperature 44 °F 39 °F 13 °F (1903)
Degree Days  
Heating Degree Days 11 15  
Month to date heating degree days 196 215  
Since 1 July heating degree days 393 379  
Cooling Degree Days 0 0  
Month to date cooling degree days 13 7  
Year to date cooling degree days 2505 2099  
Growing Degree Days 5 (Base 50)    
Moisture  
Dew Point 35 °F    
Average Humidity 48    
Maximum Humidity 60    
Minimum Humidity 36    
Precipitation  
Precipitation T in 0.06 in 2.14 in (1899)
Month to date precipitation 0.81 1.31  
Year to date precipitation 28.80 33.97  
Snow  
Snow 0.00 in 0.00 in 5.50 in (1972)
Month to date snowfall 0.0 0.1  
Since 1 July snowfall 0.0 0.1  
Snow Depth -    
Sea Level Pressure  
Sea Level Pressure 30.17 in    
Wind  
Wind Speed 15 mph (SSE)    
Max Wind Speed 26 mph    
Max Gust Speed 33 mph    
Visibility 10 miles    
Events Rain    
T = Trace of Precipitation, MM = Missing Value Source: NWS Daily Summary

Daily Weather History Graph

Daily Weather History Graph

Search for Another Location

Airport or City:

Trip Planner

Search our weather history database for the weather conditions in past years. The results will help you decide how hot, cold, wet, or windy it might be!

Date:

Astronomy

Nov. 18, 2012 Rise Set
Actual Time 7:09 AM CST 5:21 PM CST
Civil Twilight 6:41 AM CST 5:49 PM CST
Nautical Twilight 6:10 AM CST 6:20 PM CST
Astronomical Twilight 5:40 AM CST 6:50 PM CST
Moon 11:39 AM CST (11/18) 10:39 PM CST (11/18)
Length of Visible Light 11h 07m
Length of Day
10h 12m
Waxing Crescent, 30% of the Moon is Illuminated
Nov 18
Waxing Crescent
Nov 20
First Quarter
Nov 28
Full
Dec 6
Last Quarter
Dec 13
New

Hourly Weather History & Observations

Time (CST) Temp. Windchill Dew Point Humidity Pressure Visibility Wind Dir Wind Speed Gust Speed Precip Events Conditions
12:52 AM 48.0 °F - 30.0 °F 50% 30.25 in 10.0 mi SSE 10.4 mph - N/A   Mostly Cloudy
1:52 AM 46.0 °F 41.9 °F 28.9 °F 51% 30.23 in 10.0 mi SSE 8.1 mph - N/A   Mostly Cloudy
2:52 AM 45.0 °F 40.6 °F 30.0 °F 56% 30.22 in 10.0 mi SSE 8.1 mph - N/A   Mostly Cloudy
3:52 AM 44.1 °F 39.5 °F 30.9 °F 60% 30.22 in 10.0 mi SSE 8.1 mph - N/A   Mostly Cloudy
4:52 AM 46.0 °F 41.0 °F 32.0 °F 58% 30.21 in 10.0 mi SSE 10.4 mph - N/A   Mostly Cloudy
5:52 AM 46.9 °F - 33.1 °F 59% 30.21 in 10.0 mi SSE 11.5 mph - N/A   Mostly Cloudy
6:52 AM 48.0 °F - 33.1 °F 56% 30.21 in 10.0 mi SSE 12.7 mph - N/A   Mostly Cloudy
7:52 AM 48.0 °F - 34.0 °F 58% 30.23 in 10.0 mi SSE 11.5 mph - N/A   Mostly Cloudy
8:52 AM 52.0 °F - 35.1 °F 53% 30.23 in 10.0 mi SSE 15.0 mph - N/A   Mostly Cloudy
9:52 AM 55.9 °F - 35.1 °F 45% 30.22 in 10.0 mi SSE 17.3 mph 27.6 mph N/A   Mostly Cloudy
10:52 AM 60.1 °F - 35.1 °F 39% 30.21 in 10.0 mi SSE 23.0 mph 27.6 mph N/A   Mostly Cloudy
11:52 AM 60.1 °F - 35.1 °F 39% 30.19 in 10.0 mi South 19.6 mph 29.9 mph N/A   Mostly Cloudy
12:52 PM 61.0 °F - 36.0 °F 39% 30.15 in 10.0 mi South 20.7 mph 28.8 mph N/A   Mostly Cloudy
1:52 PM 63.0 °F - 36.0 °F 37% 30.11 in 10.0 mi South 20.7 mph 31.1 mph N/A   Mostly Cloudy
2:52 PM 63.0 °F - 37.0 °F 38% 30.11 in 10.0 mi South 20.7 mph 28.8 mph N/A   Mostly Cloudy
3:52 PM 63.0 °F - 37.0 °F 38% 30.11 in 10.0 mi SSE 21.9 mph 27.6 mph N/A   Mostly Cloudy
4:52 PM 60.1 °F - 37.0 °F 42% 30.12 in 10.0 mi SSE 16.1 mph - N/A   Mostly Cloudy
5:52 PM 59.0 °F - 37.0 °F 44% 30.12 in 10.0 mi SSE 15.0 mph - N/A   Overcast
6:52 PM 57.0 °F - 36.0 °F 45% 30.13 in 10.0 mi SSE 13.8 mph - N/A   Overcast
7:52 PM 57.0 °F - 36.0 °F 45% 30.13 in 10.0 mi SSE 13.8 mph - N/A   Overcast
8:52 PM 57.0 °F - 35.1 °F 44% 30.13 in 10.0 mi South 19.6 mph 24.2 mph N/A   Overcast
9:52 PM 55.0 °F - 39.9 °F 57% 30.14 in 10.0 mi South 17.3 mph - 0.00 in Rain Light Rain
10:52 PM 55.0 °F - 41.0 °F 59% 30.12 in 10.0 mi SSE 13.8 mph - 0.00 in Rain Light Rain
11:52 PM 55.9 °F - 39.0 °F 53% 30.12 in 10.0 mi South 16.1 mph - 0.00 in   Overcast